Location: Bamobli
(6.6379°N, 10.9396°W)
Time: 17:07:10
(UTC+00:00)

Cosmos 2278 Rocket - Pass Details

Date: 07 June 2020
Orbit: 840 x 847 km, 71.0° (Epoch: 05 July)

Event Time Altitude Azimuth Distance (km) Brightness Sun altitude
Rises 05:57:09 0° 350° (N) 3,391 5.5 -7.8°
Reaches altitude 10° 05:59:37 10° 354° (N) 2,456 4.9 -7.3°
Maximum altitude 06:05:11 62° 74° (ENE) 943 2.9 -6.0°
Drops below altitude 10° 06:10:45 10° 154° (SSE) 2,456 4.7 -4.7°
Sets 06:13:13 0° 158° (SSE) 3,390 5.3 -4.2°
